Le nostre stazioni meteo in Italia

Pubblicità
Il mio iltempo24.it
Kinlochewe, Gran Bretagna (99092): Temperatura & dewpoint: 14.04.2018 19:00:00 - 20.04.2018 19:00:00 (BST)Kinlochewe, Gran Bretagna (99092): Temperatura -20cm: 14.04.2018 19:00:00 - 20.04.2018 19:00:00 (BST)Kinlochewe, Gran Bretagna (99092): precipitazioni: 14.04.2018 19:00:00 - 20.04.2018 19:00:00 (BST)
Data & Tempo tt [°C] td [°C] tt -20cm [°C] rr [mm]
20.04.2018 19:00:00 - - - -
20.04.2018 18:00:00 10,8 5,5 - 0,0
20.04.2018 17:00:00 10,1 6,8 - 1,4
20.04.2018 16:00:00 10,6 7,0 - 0,4
20.04.2018 15:00:00 10,5 9,0 - 1,0
20.04.2018 14:00:00 9,8 8,0 - 1,0
20.04.2018 13:00:00 9,8 8,1 - 1,4
20.04.2018 12:00:00 10,7 7,3 - 0,4
20.04.2018 11:00:00 10,6 7,7 - 0,0
20.04.2018 10:00:00 9,7 7,7 8,7 1,8
20.04.2018 09:00:00 10,2 7,0 - 0,2
20.04.2018 08:00:00 10,7 5,9 - 0,0
20.04.2018 07:00:00 10,2 5,5 - 0,0
20.04.2018 06:00:00 10,1 6,1 - 0,0
20.04.2018 05:00:00 10,1 6,2 - 0,0
20.04.2018 04:00:00 9,8 6,7 - 0,0
20.04.2018 03:00:00 9,5 6,1 - 0,0
20.04.2018 02:00:00 9,3 6,2 - 0,0
20.04.2018 01:00:00 8,1 5,9 - 0,0
20.04.2018 00:00:00 7,8 5,5 - 0,0
19.04.2018 23:00:00 7,7 4,4 - 0,0
19.04.2018 22:00:00 9,3 5,3 - 0,0
19.04.2018 21:00:00 10,3 5,5 - 0,0
19.04.2018 20:00:00 11,7 3,9 - 0,0
19.04.2018 19:00:00 13,2 6,2 - 0,0
19.04.2018 18:00:00 12,9 8,4 - 0,0
19.04.2018 17:00:00 14,5 8,2 - 0,0
19.04.2018 16:00:00 14,5 8,1 - 0,0
19.04.2018 15:00:00 14,7 8,4 - 0,0
19.04.2018 14:00:00 14,4 8,2 - 0,0
19.04.2018 13:00:00 14,7 8,1 - 0,0
19.04.2018 12:00:00 14,4 8,2 - 0,0
19.04.2018 11:00:00 14,5 8,4 - 0,0
19.04.2018 10:00:00 14,3 8,3 9,2 0,0
19.04.2018 09:00:00 14,4 8,4 - 0,0
19.04.2018 08:00:00 - - - -
19.04.2018 07:00:00 - - - -
19.04.2018 06:00:00 - - - -
19.04.2018 05:00:00 - - - -
19.04.2018 04:00:00 - - - -
19.04.2018 03:00:00 - - - -
19.04.2018 02:00:00 16,1 8,8 - 0,0
19.04.2018 01:00:00 18,1 7,1 - 0,0
19.04.2018 00:00:00 18,9 7,7 - 0,0
18.04.2018 23:00:00 18,6 7,6 - 0,0
18.04.2018 22:00:00 17,9 8,0 - 0,0
18.04.2018 21:00:00 17,3 8,3 - 0,0
18.04.2018 20:00:00 16,4 8,2 - 0,0
18.04.2018 19:00:00 17,1 8,7 - 0,0
18.04.2018 18:00:00 16,7 8,5 - 0,0
18.04.2018 17:00:00 16,6 6,5 - 0,0
18.04.2018 16:00:00 17,9 6,0 - 0,0
18.04.2018 15:00:00 17,8 5,2 - 0,0
18.04.2018 14:00:00 17,6 6,8 - 0,0
18.04.2018 13:00:00 17,5 7,3 - 0,0
18.04.2018 12:00:00 16,3 6,8 - 0,0
18.04.2018 11:00:00 16,1 7,3 - 0,0
18.04.2018 10:00:00 14,6 7,2 8,7 0,0
18.04.2018 09:00:00 13,7 7,3 - 0,0
18.04.2018 08:00:00 11,7 8,5 - 0,0
18.04.2018 07:00:00 9,6 7,5 - 0,0
18.04.2018 06:00:00 9,5 7,9 - 0,0
18.04.2018 05:00:00 9,8 8,5 - 0,8
18.04.2018 04:00:00 11,2 7,8 - 0,0
18.04.2018 03:00:00 11,9 6,7 - 0,0
18.04.2018 02:00:00 12,4 7,2 - 0,2
18.04.2018 01:00:00 12,0 6,5 - 0,0
18.04.2018 00:00:00 11,6 6,9 - 0,0
17.04.2018 23:00:00 10,0 7,7 - 1,0
17.04.2018 22:00:00 11,4 7,3 - 0,8
17.04.2018 21:00:00 14,1 6,3 - 0,0
17.04.2018 20:00:00 14,6 5,9 - 0,0
17.04.2018 19:00:00 14,8 6,5 - 0,0
17.04.2018 18:00:00 14,3 6,8 - 0,0
17.04.2018 17:00:00 15,1 6,5 - 0,0
17.04.2018 16:00:00 13,3 7,8 - 0,4
17.04.2018 15:00:00 16,3 6,6 - 0,0
17.04.2018 14:00:00 16,6 5,6 - 0,0
17.04.2018 13:00:00 15,5 5,4 - 0,0
17.04.2018 12:00:00 15,2 5,6 - 0,0
17.04.2018 11:00:00 13,8 7,4 - 0,0
17.04.2018 10:00:00 11,8 8,7 8,4 0,6
17.04.2018 09:00:00 10,7 9,0 - 2,2
17.04.2018 08:00:00 11,1 8,3 - 1,0
17.04.2018 07:00:00 12,6 6,3 - 0,0
17.04.2018 06:00:00 13,3 5,4 - 0,0
17.04.2018 05:00:00 12,0 5,5 - 0,0
17.04.2018 04:00:00 12,2 5,2 - 0,0
17.04.2018 03:00:00 11,9 5,1 - 0,0
17.04.2018 02:00:00 11,2 4,7 - 0,0
17.04.2018 01:00:00 11,0 4,4 - 0,0
17.04.2018 00:00:00 11,3 4,0 - 0,0
16.04.2018 23:00:00 11,9 3,9 - 0,0
16.04.2018 22:00:00 11,7 3,2 - 0,0
16.04.2018 21:00:00 11,7 2,3 - 0,0
16.04.2018 20:00:00 11,8 2,3 - 0,0
16.04.2018 19:00:00 12,2 2,1 - 0,0
16.04.2018 18:00:00 12,9 1,6 - 0,0
16.04.2018 17:00:00 14,4 3,6 - 0,0
16.04.2018 16:00:00 15,9 3,5 - 0,0
16.04.2018 15:00:00 16,1 6,0 - 0,0
16.04.2018 14:00:00 14,8 7,4 - 0,0
16.04.2018 13:00:00 13,4 7,6 - 0,0
16.04.2018 12:00:00 14,1 6,3 - 0,0
16.04.2018 11:00:00 13,3 6,1 - 0,0
16.04.2018 10:00:00 12,7 5,9 8,0 0,0
16.04.2018 09:00:00 12,0 5,6 - 0,0
16.04.2018 08:00:00 10,9 6,0 - 0,0
16.04.2018 07:00:00 9,6 5,3 - 0,0
16.04.2018 06:00:00 9,7 5,2 - 0,0
16.04.2018 05:00:00 9,4 5,2 - 0,0
16.04.2018 04:00:00 9,9 4,9 - 0,0
16.04.2018 03:00:00 10,0 5,2 - 0,0
16.04.2018 02:00:00 10,5 5,1 - 0,0
16.04.2018 01:00:00 10,7 5,0 - 0,0
16.04.2018 00:00:00 11,3 4,9 - 0,0
15.04.2018 23:00:00 11,7 5,4 - 0,0
15.04.2018 22:00:00 11,1 5,2 - 0,0
15.04.2018 21:00:00 12,0 5,1 - 0,0
15.04.2018 20:00:00 13,5 5,2 - 0,0
15.04.2018 19:00:00 15,3 5,3 - 0,0
15.04.2018 18:00:00 16,5 5,2 - 0,0
15.04.2018 17:00:00 17,1 3,9 - 0,0
15.04.2018 16:00:00 17,3 5,3 - 0,0
15.04.2018 15:00:00 18,0 5,8 - 0,0
15.04.2018 14:00:00 16,0 5,0 - 0,0
15.04.2018 13:00:00 17,0 5,7 - 0,0
15.04.2018 12:00:00 16,2 5,7 - 0,0
15.04.2018 11:00:00 15,2 6,6 - 0,0
15.04.2018 10:00:00 12,0 5,2 7,5 0,0
15.04.2018 09:00:00 11,0 5,2 - 0,2
15.04.2018 08:00:00 6,3 4,3 - 0,0
15.04.2018 07:00:00 4,2 3,1 - 0,0
15.04.2018 06:00:00 3,8 3,2 - 0,0
15.04.2018 05:00:00 3,0 1,9 - 0,0
15.04.2018 04:00:00 4,0 3,1 - 0,0
15.04.2018 03:00:00 3,8 2,9 - 0,0
15.04.2018 02:00:00 3,2 2,1 - 0,0
15.04.2018 01:00:00 4,8 2,7 - 0,0
15.04.2018 00:00:00 5,5 3,0 - 0,0
14.04.2018 23:00:00 5,8 2,1 - 0,0
14.04.2018 22:00:00 9,2 4,7 - 0,0
14.04.2018 21:00:00 10,6 3,8 - 0,0
14.04.2018 20:00:00 12,9 4,4 - 0,0
14.04.2018 19:00:00 13,8 3,4 - 0,0

tt = Temperatura
td = dewpoint
tt -20cm = Temperatura -20cm
rr = precipitazioni

Stazioni seguenti

WeatherPro
AMSI
MeteoEarth